Time,TemperatureF,DewpointF,PressureIn,WindDirection,WindDirectionDegrees,WindSpeedMPH,WindSpeedGustMPH,Humidity,HourlyPrecipIn,Conditions,Clouds,dailyrainin,SoftwareType,DateUTC
2013-01-25 06:18:00,42.5,41.1,29.82,SW,225,0.0,0.0,95,0.01,,,0.00,WUHU216HW,2013-01-25 14:18:00,
2013-01-25 06:23:00,42.5,41.1,29.82,SW,225,0.0,0.0,95,0.01,,,0.00,WUHU216HW,2013-01-25 14:23:00,
2013-01-25 07:00:00,46.1,45.0,29.76,SSW,203,0.0,0.0,96,0.00,,,0.00,WUHU216HW,2013-01-25 15:00:00,
2013-01-25 07:05:00,46.1,45.0,29.76,SSW,203,0.0,0.0,96,0.00,,,0.09,WUHU216HW,2013-01-25 15:05:00,
2013-01-25 07:10:00,46.3,45.2,29.75,SSW,203,0.0,0.0,96,0.00,,,0.09,WUHU216HW,2013-01-25 15:10:00,
2013-01-25 07:15:00,46.4,45.4,29.75,SSW,203,0.0,0.0,96,0.00,,,0.09,WUHU216HW,2013-01-25 15:15:00,
2013-01-25 07:20:00,46.4,45.4,29.75,SSW,203,0.0,0.0,96,0.00,,,0.09,WUHU216HW,2013-01-25 15:20:00,
2013-01-25 07:25:00,46.4,45.4,29.76,SSW,203,0.0,0.0,96,0.00,,,0.09,WUHU216HW,2013-01-25 15:25:00,
2013-01-25 07:30:00,46.4,45.4,29.75,SSW,203,0.0,0.0,96,0.01,,,0.09,WUHU216HW,2013-01-25 15:30:00,
2013-01-25 07:35:00,46.4,45.4,29.76,SSW,203,0.0,0.0,96,0.01,,,0.09,WUHU216HW,2013-01-25 15:35:00,
2013-01-25 07:40:00,46.4,45.4,29.75,SSW,203,0.0,0.0,96,0.01,,,0.09,WUHU216HW,2013-01-25 15:40:00,
2013-01-25 07:45:00,46.4,45.4,29.75,SSW,203,0.0,0.0,96,0.01,,,0.09,WUHU216HW,2013-01-25 15:45:00,
2013-01-25 07:50:00,46.4,45.4,29.75,SSW,203,0.0,0.0,96,0.01,,,0.09,WUHU216HW,2013-01-25 15:50:00,
2013-01-25 07:55:00,46.4,45.4,29.75,SSW,203,0.0,0.0,96,0.01,,,0.09,WUHU216HW,2013-01-25 15:55:00,
2013-01-25 08:00:00,46.4,45.4,29.75,SSW,203,0.0,0.0,96,0.01,,,0.09,WUHU216HW,2013-01-25 16:00:00,
2013-01-25 08:05:00,46.4,45.4,29.75,SSW,203,0.0,0.0,96,0.02,,,0.11,WUHU216HW,2013-01-25 16:05:00,
2013-01-25 08:10:00,46.4,45.4,29.75,SSW,203,0.0,0.0,96,0.02,,,0.11,WUHU216HW,2013-01-25 16:10:00,
2013-01-25 08:15:00,46.4,45.4,29.75,SSW,203,0.0,0.0,96,0.02,,,0.11,WUHU216HW,2013-01-25 16:15:00,
2013-01-25 08:20:00,46.6,45.5,29.75,SSW,203,0.0,0.0,96,0.02,,,0.11,WUHU216HW,2013-01-25 16:20:00,
2013-01-25 08:25:00,46.8,45.7,29.75,SSW,203,0.0,0.0,96,0.01,,,0.11,WUHU216HW,2013-01-25 16:25:00,
2013-01-25 08:30:00,46.8,45.7,29.75,SSW,203,0.0,0.0,96,0.01,,,0.11,WUHU216HW,2013-01-25 16:30:00,
2013-01-25 08:35:00,46.8,45.7,29.75,SSW,203,0.0,0.0,96,0.01,,,0.11,WUHU216HW,2013-01-25 16:35:00,
2013-01-25 08:40:00,46.8,45.7,29.75,SSW,203,0.0,0.0,96,0.01,,,0.11,WUHU216HW,2013-01-25 16:40:00,
2013-01-25 08:45:00,46.8,45.7,29.75,SSW,203,0.0,0.0,96,0.01,,,0.11,WUHU216HW,2013-01-25 16:45:00,
2013-01-25 08:50:00,47.0,46.2,29.75,SSW,203,0.4,0.4,97,0.01,,,0.11,WUHU216HW,2013-01-25 16:50:00,
2013-01-25 08:55:00,47.0,46.2,29.74,SSW,203,0.0,0.4,97,0.01,,,0.11,WUHU216HW,2013-01-25 16:55:00,
2013-01-25 09:00:00,47.2,46.4,29.74,SSW,203,0.0,0.4,97,0.02,,,0.12,WUHU216HW,2013-01-25 17:00:00,
2013-01-25 09:05:00,47.2,46.4,29.75,SSW,203,0.0,0.0,97,0.01,,,0.12,WUHU216HW,2013-01-25 17:05:00,
2013-01-25 09:10:00,47.3,46.5,29.74,SSW,203,0.0,0.0,97,0.01,,,0.12,WUHU216HW,2013-01-25 17:10:00,
2013-01-25 09:15:00,47.5,46.7,29.74,SSW,203,0.0,0.0,97,0.01,,,0.12,WUHU216HW,2013-01-25 17:15:00,
2013-01-25 09:20:00,47.7,46.9,29.74,SSW,203,0.0,0.0,97,0.01,,,0.12,WUHU216HW,2013-01-25 17:20:00,
2013-01-25 09:25:00,47.9,47.1,29.75,SSW,203,0.0,0.0,97,0.01,,,0.12,WUHU216HW,2013-01-25 17:25:00,
2013-01-25 09:30:00,48.1,47.3,29.75,SSW,203,0.0,0.0,97,0.01,,,0.12,WUHU216HW,2013-01-25 17:30:00,
2013-01-25 09:35:00,48.1,47.3,29.75,SSW,203,0.0,0.0,97,0.01,,,0.12,WUHU216HW,2013-01-25 17:35:00,
2013-01-25 09:40:00,48.4,47.6,29.75,SSW,203,0.0,0.0,97,0.02,,,0.13,WUHU216HW,2013-01-25 17:40:00,
2013-01-25 09:45:00,48.4,47.6,29.75,SSW,203,0.0,0.0,97,0.02,,,0.13,WUHU216HW,2013-01-25 17:45:00,
2013-01-25 09:50:00,48.6,47.8,29.75,SSW,203,0.0,0.0,97,0.02,,,0.13,WUHU216HW,2013-01-25 17:50:00,
2013-01-25 09:55:00,48.8,48.0,29.75,SSW,203,0.7,0.7,97,0.02,,,0.14,WUHU216HW,2013-01-25 17:55:00,
2013-01-25 10:00:00,49.0,48.2,29.75,SSW,203,0.2,1.1,97,0.03,,,0.15,WUHU216HW,2013-01-25 18:00:00,
2013-01-25 10:05:00,49.0,48.2,29.75,South,180,0.0,1.1,97,0.04,,,0.16,WUHU216HW,2013-01-25 18:05:00,
2013-01-25 10:10:00,49.1,48.3,29.75,South,180,0.0,0.2,97,0.04,,,0.16,WUHU216HW,2013-01-25 18:10:00,
2013-01-25 10:15:00,49.3,48.5,29.75,South,180,0.0,0.7,97,0.04,,,0.16,WUHU216HW,2013-01-25 18:15:00,
2013-01-25 10:20:00,49.5,48.7,29.74,SE,135,0.0,0.7,97,0.05,,,0.17,WUHU216HW,2013-01-25 18:20:00,
2013-01-25 10:25:00,49.7,48.9,29.74,SSE,158,0.0,0.4,97,0.05,,,0.17,WUHU216HW,2013-01-25 18:25:00,
2013-01-25 10:30:00,49.7,48.9,29.75,SSE,158,0.0,0.7,97,0.05,,,0.17,WUHU216HW,2013-01-25 18:30:00,
2013-01-25 10:35:00,49.9,49.0,29.74,SW,225,0.0,0.7,97,0.05,,,0.17,WUHU216HW,2013-01-25 18:35:00,
2013-01-25 10:40:00,50.0,49.1,29.75,SW,225,0.4,0.4,97,0.04,,,0.17,WUHU216HW,2013-01-25 18:40:00,
2013-01-25 10:45:00,50.2,49.1,29.75,SSW,203,0.0,0.4,96,0.04,,,0.17,WUHU216HW,2013-01-25 18:45:00,
2013-01-25 10:50:00,50.4,49.2,29.75,South,180,0.0,0.9,96,0.03,,,0.17,WUHU216HW,2013-01-25 18:50:00,
2013-01-25 10:55:00,50.6,49.4,29.75,SW,225,0.9,1.1,96,0.03,,,0.17,WUHU216HW,2013-01-25 18:55:00,
2013-01-25 11:00:00,50.8,49.6,29.74,WSW,248,0.0,1.1,96,0.02,,,0.17,WUHU216HW,2013-01-25 19:00:00,
2013-01-25 11:05:00,50.9,49.8,29.74,WSW,248,0.0,1.1,96,0.01,,,0.17,WUHU216HW,2013-01-25 19:05:00,
2013-01-25 11:10:00,51.1,50.0,29.74,WSW,248,0.0,2.5,96,0.01,,,0.17,WUHU216HW,2013-01-25 19:10:00,
2013-01-25 11:15:00,51.3,50.1,29.74,SW,225,1.1,2.5,96,0.00,,,0.17,WUHU216HW,2013-01-25 19:15:00,
2013-01-25 11:20:00,51.5,50.3,29.74,SW,225,0.0,1.1,96,0.00,,,0.17,WUHU216HW,2013-01-25 19:20:00,
2013-01-25 11:25:00,51.5,50.3,29.74,South,180,0.7,1.1,96,0.00,,,0.17,WUHU216HW,2013-01-25 19:25:00,
2013-01-25 11:30:00,51.7,50.5,29.73,South,180,0.7,1.1,96,0.00,,,0.17,WUHU216HW,2013-01-25 19:30:00,
2013-01-25 11:35:00,51.8,50.7,29.73,SW,225,0.0,1.8,96,0.00,,,0.17,WUHU216HW,2013-01-25 19:35:00,
2013-01-25 11:40:00,51.8,50.7,29.73,South,180,1.6,1.8,96,0.00,,,0.17,WUHU216HW,2013-01-25 19:40:00,
2013-01-25 11:45:00,51.8,50.7,29.73,SW,225,0.2,1.6,96,0.00,,,0.17,WUHU216HW,2013-01-25 19:45:00,
2013-01-25 11:50:00,52.0,50.9,29.73,SW,225,1.1,1.6,96,0.00,,,0.17,WUHU216HW,2013-01-25 19:50:00,
2013-01-25 11:55:00,52.4,51.2,29.72,ESE,113,0.0,2.2,96,0.00,,,0.17,WUHU216HW,2013-01-25 19:55:00,
2013-01-25 12:00:00,52.4,51.2,29.72,NW,315,0.0,2.2,96,0.00,,,0.17,WUHU216HW,2013-01-25 20:00:00,
2013-01-25 12:05:00,52.4,51.2,29.72,WSW,248,1.1,2.0,96,0.00,,,0.17,WUHU216HW,2013-01-25 20:05:00,
2013-01-25 12:10:00,52.4,51.2,29.71,WSW,248,0.0,1.1,96,0.00,,,0.17,WUHU216HW,2013-01-25 20:10:00,
2013-01-25 12:15:00,52.7,51.6,29.72,South,180,0.0,1.1,96,0.00,,,0.17,WUHU216HW,2013-01-25 20:15:00,
2013-01-25 12:20:00,52.9,51.8,29.71,WSW,248,0.0,0.9,96,0.00,,,0.17,WUHU216HW,2013-01-25 20:20:00,
2013-01-25 12:25:00,52.9,51.8,29.71,NE,45,0.9,1.1,96,0.00,,,0.17,WUHU216HW,2013-01-25 20:25:00,
2013-01-25 12:30:00,53.1,51.9,29.71,NE,45,0.4,1.1,96,0.00,,,0.17,WUHU216HW,2013-01-25 20:30:00,
2013-01-25 12:31:00,53.1,51.7,29.71,NE,45,0.0,1.1,95,0.00,,,0.17,WUHU216HW,2013-01-25 20:31:00,
2013-01-25 20:37:00,53.1,51.7,29.71,NE,45,0.0,0.0,95,0.00,,,0.17,WUHU216HW,2013-01-26 04:37:00,
2013-01-25 20:38:00,53.1,51.7,29.71,NE,45,0.0,0.0,95,0.00,,,0.17,WUHU216HW,2013-01-26 04:38:00,
2013-01-25 20:43:00,53.1,51.7,29.71,NE,45,0.0,0.0,95,0.00,,,0.17,WUHU216HW,2013-01-26 04:43:00,
2013-01-25 21:00:00,41.9,40.3,29.66,SW,225,0.0,0.0,94,0.00,,,0.17,WUHU216HW,2013-01-26 05:00:00,
2013-01-25 21:01:00,41.8,40.1,29.66,SW,225,0.0,0.0,94,0.00,,,0.17,WUHU216HW,2013-01-26 05:01:00,
2013-01-25 21:03:00,41.8,40.1,29.66,SW,225,0.0,0.0,94,0.00,,,0.17,WUHU216HW,2013-01-26 05:03:00,
2013-01-25 21:08:00,41.6,40.0,29.66,SW,225,0.0,0.0,94,0.00,,,0.17,WUHU216HW,2013-01-26 05:08:00,
2013-01-25 21:13:00,41.4,39.8,29.65,SW,225,0.0,0.0,94,0.00,,,0.17,WUHU216HW,2013-01-26 05:13:00,
2013-01-25 21:18:00,41.4,39.8,29.66,SW,225,0.0,0.0,94,0.00,,,0.17,WUHU216HW,2013-01-26 05:18:00,
2013-01-25 21:23:00,41.2,39.6,29.66,SW,225,0.0,0.0,94,0.00,,,0.17,WUHU216HW,2013-01-26 05:23:00,
2013-01-25 21:28:00,40.9,39.2,29.66,SW,225,0.0,0.0,94,0.00,,,0.17,WUHU216HW,2013-01-26 05:28:00,
2013-01-25 21:33:00,40.7,39.1,29.66,SW,225,0.0,0.0,94,0.00,,,0.17,WUHU216HW,2013-01-26 05:33:00,
2013-01-25 21:38:00,40.7,39.1,29.66,SW,225,0.0,0.0,94,0.00,,,0.17,WUHU216HW,2013-01-26 05:38:00,
2013-01-25 21:43:00,40.7,39.1,29.66,SW,225,0.0,0.0,94,0.00,,,0.17,WUHU216HW,2013-01-26 05:43:00,
2013-01-25 21:48:00,40.5,38.9,29.66,SW,225,0.0,0.0,94,0.00,,,0.17,WUHU216HW,2013-01-26 05:48:00,
2013-01-25 21:53:00,40.3,38.7,29.66,SW,225,0.0,0.0,94,0.00,,,0.17,WUHU216HW,2013-01-26 05:53:00,
2013-01-25 21:58:00,40.1,38.5,29.66,SW,225,0.0,0.0,94,0.00,,,0.17,WUHU216HW,2013-01-26 05:58:00,
2013-01-25 22:03:00,40.0,38.3,29.66,SW,225,0.0,0.0,94,0.00,,,0.17,WUHU216HW,2013-01-26 06:03:00,
2013-01-25 22:08:00,40.0,38.3,29.66,SW,225,0.0,0.0,94,0.00,,,0.17,WUHU216HW,2013-01-26 06:08:00,
2013-01-25 22:13:00,40.0,38.3,29.66,SW,225,0.0,0.0,94,0.00,,,0.17,WUHU216HW,2013-01-26 06:13:00,
2013-01-25 22:18:00,39.8,38.2,29.66,SW,225,0.0,0.0,94,0.00,,,0.17,WUHU216HW,2013-01-26 06:18:00,
2013-01-25 22:23:00,39.4,37.8,29.66,SW,225,0.0,0.0,94,0.00,,,0.17,WUHU216HW,2013-01-26 06:23:00,
2013-01-25 22:28:00,39.2,37.6,29.66,SW,225,0.0,0.0,94,0.00,,,0.17,WUHU216HW,2013-01-26 06:28:00,
2013-01-25 22:33:00,39.1,37.4,29.66,SW,225,0.0,0.0,94,0.00,,,0.17,WUHU216HW,2013-01-26 06:33:00,
2013-01-25 22:38:00,38.9,37.3,29.66,SW,225,0.0,0.0,94,0.00,,,0.17,WUHU216HW,2013-01-26 06:38:00,
2013-01-25 22:43:00,38.7,37.1,29.66,SW,225,0.0,0.0,94,0.00,,,0.17,WUHU216HW,2013-01-26 06:43:00,
2013-01-25 22:48:00,38.5,36.9,29.66,SW,225,0.0,0.0,94,0.00,,,0.17,WUHU216HW,2013-01-26 06:48:00,
2013-01-25 22:53:00,38.5,36.9,29.66,SW,225,0.0,0.0,94,0.00,,,0.17,WUHU216HW,2013-01-26 06:53:00,
2013-01-25 22:58:00,38.5,36.9,29.66,SW,225,0.0,0.0,94,0.00,,,0.17,WUHU216HW,2013-01-26 06:58:00,
2013-01-25 23:03:00,38.5,36.9,29.67,SW,225,0.0,0.0,94,0.00,,,0.17,WUHU216HW,2013-01-26 07:03:00,
2013-01-25 23:08:00,38.3,36.7,29.67,SW,225,0.0,0.0,94,0.00,,,0.17,WUHU216HW,2013-01-26 07:08:00,
2013-01-25 23:13:00,38.2,36.5,29.67,SW,225,0.4,0.4,94,0.00,,,0.17,WUHU216HW,2013-01-26 07:13:00,
2013-01-25 23:18:00,38.2,36.5,29.67,SW,225,0.0,0.4,94,0.00,,,0.17,WUHU216HW,2013-01-26 07:18:00,
2013-01-25 23:23:00,38.2,36.5,29.67,SW,225,0.0,0.4,94,0.00,,,0.17,WUHU216HW,2013-01-26 07:23:00,
2013-01-25 23:26:00,38.2,36.5,29.67,SW,225,0.0,0.0,94,0.00,,,0.17,WUHU216HW,2013-01-26 07:26:00,